Flag Weather past 2 weeks in Modesto, California, U.S.A.

Now
51 °F

Clear.


Feels Like: 51 °F
Forecast: 46 / 68 °F
Wind: No wind

Location: Modesto City-County-Sham Field

Current Time: Nov 26, 2014 at 8:56:01 PM

Latest Report: Nov 26, 2014 at 7:53 PM


Visibility: 4 mi

Pressure: 30.22 "Hg

Humidity: 83%

Dew point: 46 °F

Location of ModestoLocation

Historic Weather in Modesto — Graph

°F

Modesto temperature yesterday

Maximum temperature yesterday: 65 °F (at 2:53 PM)
Minimum temperature yesterday: 41 °F (at 4:53 AM)
Average temperature yesterday: 51 °F

Past Weeks' High & Low Weather Summary

 TemperatureHumidityPressure
High68 °F (Nov 26, 2:53 PM)100% (Nov 20, 8:53 PM)30.50 "Hg (Nov 20, 8:53 PM)
Low1 °F (Nov 21, 7:53 AM)34% (Nov 19, 1:53 PM)29.93 "Hg (Nov 11, 7:53 PM)
Average54 °F78%30.16 "Hg
* Reported Nov 11 7:53 PM — Nov 26 7:53 PM, Modesto, Weather by CustomWeather, © 2014

Note: Actual official high and low records may vary slightly from our data, if they occured in-between our weather recording intervals... More about our weather records

Advertising

Modesto weather history for previous 24 hours

 ConditionsComfort  
Time TempWeatherWind HumidityBarometerVisibility
7:53 PM
Nov 26
51 °FClear.No wind83%30.22 "Hg4 mi
6:53 PM54 °FClear.No wind77%30.22 "Hg6 mi
5:53 PM56 °FClear.No wind72%30.21 "Hg6 mi
4:53 PM60 °FClear.No wind65%30.22 "Hg6 mi
3:53 PM68 °FSunny.No wind42%30.22 "Hg6 mi
2:53 PM68 °FSunny.3 mph44%30.23 "Hg6 mi
1:53 PM67 °FSunny.No wind42%30.24 "Hg7 mi
12:53 PM65 °FSunny.No wind52%30.26 "Hg6 mi
11:53 AM62 °FSunny.3 mph60%30.29 "Hg5 mi
10:53 AMN/ASunny.No windN/A30.32 "Hg5 mi
9:53 AMN/ASunny.No windN/A30.34 "Hg5 mi
8:53 AMN/ASunny.No windN/A30.34 "Hg3 mi
8:03 AM42 °FFog.6 mph92%30.34 "Hg1 mi
7:03 AMN/AFog.No windN/A30.33 "Hg0 mi
6:53 AM39 °FFog.No wind96%30.34 "Hg2 mi
6:00 AM41 °FFog.No wind89%30.34 "Hg4 mi
5:04 AM41 °FFog.3 mph93%30.33 "Hg2 mi
3:53 AM43 °FFog.No wind93%30.33 "Hg2 mi
2:53 AM42 °FFog.3 mph92%30.33 "Hg2 mi
1:53 AM43 °FFog.5 mph89%30.33 "Hg2 mi
12:53 AM44 °FFog.3 mph89%30.34 "Hg2 mi
11:53 PM
Nov 25
44 °FFog.No wind93%30.36 "Hg2 mi
10:53 PM45 °FFog.3 mph90%30.37 "Hg3 mi
10:00 PM46 °FFog.No wind93%30.38 "Hg2 mi
8:53 PM49 °FFog.No wind86%30.38 "Hg5 mi
Weather by CustomWeather, © 2014

See weather overviewHow to use our weather pages